User: anonymous   Login
Location: La Pernelle
(49.6188°N, 1.2999°W)
Time: 18:53:53
(UTC+00:00)
Language:

Terra - Orbit

View from above orbital plane
View from above orbital plane
View from above satellite
View from above satellite

Ground track
Ground track

The orbit data is extracted from the following two-line orbital elements,

1 25994U 99068A   21268.14474880  .00000103  00000-0  32786-4 0  9990
2 25994  98.1685 340.7063 0001386  92.3210 350.9621 14.57130903157985
Epoch (UTC): 25 September 2021 03:28:26
Eccentricity: 0.0001386
inclination: 98.1685°
perigee height: 701 km
apogee height: 703 km
right ascension of ascending node: 340.7063°
argument of perigee: 92.3210°
revolutions per day: 14.57130903
mean anomaly at epoch: 350.9621°
orbit number at epoch: 15798

The dashed part of the orbit path shows where the satellite is in the earth's shadow,  

DLR